Weather in Yelanskaya

Russia / Rostov Oblast     49°36′53″N   42°02′27″E
temp.,
°C
wind,
m/s
gust,
m/s
humid.,
%
clouds,
%
prec.,
mm/h
press.,
hPa
HPBL,
m
6 march, sat
sat600:000nne2399100 0.1 1014140
03:00−1ne3498100 1.1 1015207
06:00−1ne3597100 1.0 1014272
09:00−1ne4596100 2.4 1014340
12:00−1nne4697100 1.7 1014434
15:00−1nne4696100 2.8 1013455
18:00−2n5796100 1.6 1013480
21:00−2nnw6996100 2.9 1014579
7 march, sun
sun700:00−4nw81289100 1.2 1015688
03:00−5nw61188100 1.3 1018638
06:00−7nw499068 0.0 1019301
09:00−5w587834 0.0 1020613
12:00−3wsw710710 0.0 10181147
15:00−2sw8127533 0.1 10161255
18:00−2sw71576100 0.0 1013849
21:00−2sw9187287 0.0 1012832
8 march, mon
mon800:00−2wsw9177736 0.0 1010834
03:00−1wsw9158265 0.0 1009923
06:00−2wsw81584100 0.0 1008847
09:00−1wsw9158297 0.0 1008981
12:000wsw10158599 0.1 10071263
15:00+1wsw91480100 0.2 10071248
18:00−1w4107499 1.4 1008899
21:00−5nw5126798 1.4 1012555
9 march, tue
tue900:00−6nw367655 0.0 1014175
03:00−7wnw228128 0.0 101430
06:00−8w22830 0.0 101536
09:00−6wnw34740 0.0 1016437
12:00−3w34590 0.0 10161073
15:00−2w46545 0.0 10161558
18:00−4wnw367180 0.1 1016185
21:00−5nw589374 0.1 1019490
10 march, wed
wed1000:00−7nnw487798 0.1 1020470
03:00−8nnw358199 0.2 1022438
06:00−9nw358288 0.0 1023191
09:00−8wnw347644 0.0 1024526
12:00−5w45570 0.0 1023704
15:00−3wsw465218 0.0 1022807
18:00−5wsw366235 0.0 1021105
21:00−6wsw366556 0.0 102199